Location: Frankfurt am Main
(50.1109°N, 8.6821°E)
Time: 18:36:49
(UTC+02:00)

ISS - Pass Details

Date: 21 May 2021
Orbit: 419 x 422 km, 51.6° (Epoch: 24 June)

Event Time Altitude Azimuth Distance (km) Brightness Sun altitude
Rises 23:00:19 0° 269° (W) 2,299 0.5 -13.1°
Reaches altitude 10° 23:02:26 10° 272° (W) 1,429 -0.6 -13.3°
Drops below altitude 10° 23:08:42 10° 79° (ENE) 1,391 -1.3 -13.8°
Enters shadow 23:09:27 - 80° (E) 1,701 -0.9 -13.9°
Exits shadow 23:35:11 -55° 92° (E) 10,838 3.3 -15.9°
